Regional Weather Roundup
Issued by NWS Charleston, SC

Current Version | Previous Version | Text Only | Print | Product List | Glossary Off
Versions: 1 2 3 4 5 6 7 8 9 10 11 12 13 14 15 16 17 18 19 20 21 22 23 24 25 26 27 28 29 30 31 32 33 34 35 36 37 38 39 40 41 42 43 44 45 46 47 48 49 50
000 ASUS42 KCHS 011127 RWRCHS REGIONAL WEATHER ROUNDUP NATIONAL WEATHER SERVICE CHARLESTON SC 700 AM EDT TUE SEP 01 2015 NOTE: "FAIR" INDICATES FEW OR NO CLOUDS BELOW 12,000 FEET WITH NO SIGNIFICANT WEATHER AND/OR OBSTRUCTIONS TO VISIBILITY. NOT ALL STATIONS ARE QUALITY CONTROLLED BY THE NATIONAL WEATHER SERVICE. USE DATA WITH CAUTION...ESPECIALLY DEWPOINT OBSERVATIONS. SCZ027-030-031-034>040-042>050-011200- ...SOUTHEAST SOUTH CAROLINA... CITY SKY/WX TMP DP RH WIND PRES REMARKS N CHARLESTON PTCLDY 72 70 93 CALM 30.09R WATERFRONT PRK N/A 76 73 90 VRB2 30.06R MOUNT PLEASANT LGT RAIN 72 72 100 CALM 30.10R JOHNS ISLAND FAIR 73 72 94 CALM 30.11R PINOPOLIS N/A 79 73 83 VRB2 30.00S MONCKS CORNER FAIR 70 68 94 CALM 30.10R FOG SUMMERVILLE FAIR 68 68 100 CALM 30.11R BEAUFORT MCAS PTCLDY 72 71 97 CALM 30.09R BEAUFORT ARPT FAIR 73 73 100 CALM 30.10R FOG HILTON HEAD IS PTCLDY 75 73 94 CALM 30.10R WALTERBORO SUNNY 68 66 94 CALM 30.12R ALLENDALE FAIR 66 66 100 CALM 30.11R FOG ...SOUTHERN MIDLANDS AND PEE DEE... CITY SKY/WX TMP DP RH WIND PRES REMARKS GEORGETOWN NOT AVBL KINGSTREE NOT AVBL ORANGEBURG CLEAR 68 66 93 CALM 30.09R BARNWELL FAIR 68 66 94 CALM 30.12R FOG AIKEN FAIR 66 64 94 CALM 30.15R MANNING FAIR 64 64 100 CALM 30.10R COLUMBIA PTCLDY 69 65 86 SW3 30.09R SUMTER CLEAR 71 69 93 SW1 30.07R FLORENCE CLEAR 69 67 93 NE3 30.09R MYRTLE BEACH CLEAR 70 66 88 CALM 30.10R N MYRTLE BEACH FOG 70 69 97 NW3 30.09R VSB 1/4 $$ GAZ063-065-086>088-099>101-113>116-118-119-134>141-150-011200- ...SOUTHEAST GEORGIA... CITY SKY/WX TMP DP RH WIND PRES REMARKS SAVANNAH ARPT CLOUDY 73 71 93 CALM 30.10R HUNTER AAF PTCLDY 74 74 100 CALM 30.07R FORT STEWART MOCLDY 73 70 93 CALM 30.07R STATESBORO PTCLDY 66 32 28 CALM 30.11R SYLVANIA SUNNY 67 67 100 CALM 30.12R FOG CLAXTON NOT AVBL ...CSRA...CENTRAL AND FAR SOUTHEAST GEORGIA... CITY SKY/WX TMP DP RH WIND PRES REMARKS THOMSON CLEAR 66 66 100 CALM 30.16R AUGUSTA-BUSH CLEAR 66 66 100 CALM 30.10R AUGUSTA-DANIEL CLEAR 75 67 76 CALM 30.11R SWAINSBORO FAIR N/A N/A N/A CALM 30.12R VIDALIA CLEAR 70 68 94 CALM 30.11R EASTMAN FOG 67 67 100 CALM 30.13R VSB 1/2 HAZLEHURST FAIR 73 73 100 CALM 30.09R ALMA PTCLDY 73 71 93 CALM 30.07R WAYCROSS PTCLDY 76 76 100 CALM 30.08R FOG JESUP CLOUDY 77 75 94 CALM 30.09R BAXLEY FAIR 72 72 100 NE3 30.09R BRUNSWICK MOCLDY 73 72 94 SE6 30.08R SAINT SIMONS LGT RAIN 76 75 97 E6 30.08R $$ SCZ027-028-034-036>038-045-046-048>050-GAZ119-141-011200- ...LAKE AND SUPPLEMENTAL COASTAL OBSERVATIONS... STATION/POSITION TIME TEMP WIND PRES WAVE SWELL AIR SEA DIR/SP/G HT/PER HT/PER/DIR (UTC) (F) (DEG/KT/KT) (MB) (FT/S) (FT/S/D) UPR LAKE MARION NOT AVBL WINYAH BAY 1000 71 CALM 1017.0 LAKE MURRAY 1100 72 CALM / 2 1019.0R ACE BASIN NERRS NOT AVBL FORT PULASKI 1100 78 83 350/ 4/ 5 1019.3R SAPELO ISLAND 1100 77 20/ 1 1018.0R $$ ANZ835-935-AMZ111-154-330-350-352-354-370-450-454-472-011200- ...C-MAN AND BUOY OBSERVATIONS... STATION/POSITION TIME TEMP WIND PRES WAVE SWELL AIR SEA DIR/SP/G HT/PER HT/PER/DIR (UTC) (F) (DEG/KT/KT) (MB) (FT/S) (FT/S/D) BUOY 41004 1050 81 82 340/ 4/ 4 1018.1R 3/ 8 3/ 8 BUOY 41008 1050 82 84 120/ 4/ 6 1018.2R 3/ 8 2/100/ 8 FOLLY BEACH CMAN 1100 74 330/ 3/ 4 1019.0R CAPERS NEARSHORE 1008 79 340/ 8/ 12 1018.3R FRIPP NEARSHORE 1000 80 360/ 4/ 4 1017.8R STATION/POSITION TIME TEMP WIND PRES WAVE SWELL AIR SEA DIR/SP/G HT/PER HT/PER/DIR (UTC) (F) (DEG/KT/KT) (MB) (FT/S) (FT/S/D) 5E ST. MARYS GA 1021 85 N/A 3/ 8 FRYING PAN BUOY 1050 81 81 280/ 12/ 14 1018.3R 3/ 6 2/170/ 6 BUOY 41025 1050 80 84 330/ 12/ 16 1016.2R 4/ 6 3/170/ 6 CAPE LOOKOUT NC 1100 76 310/ 10/ 13 1017.0R BUOY 41002 1050 84 84 240/ 10/ 12 1018.0F 4/ 7 3/230/ 7 BUOY 41010 1020 84 85 170/ 4/ 6 1018.0R ST AUGUSTINE FL 1100 77 83 220/ 5/ 5 1018.4R $$

USA.gov is the U.S. government's official web portal to all federal, state and local government web resources and services.